723  
ASUS44 KMOB 170313  
RWRMOB  
REGIONAL WEATHER ROUNDUP  
NATIONAL WEATHER SERVICE MOBILE AL  
1000 PM CDT SAT OCT 16 2021  
 
NOTE: "FAIR" INDICATES FEW OR NO CLOUDS BELOW 12,000 FEET WITH NO  
SIGNIFICANT WEATHER AND/OR S TO VISIBILITY
.  
 
* THESE STATIONS ARE PART OF THE UNIVERSITY OF SOUTH ALABAMA  
MESONET AND ARE NOT UNDER NWS OR FAA QUALITY CONTROL.
 
 
ALZ061>064-170400-  
COASTAL ALABAMA  
 
CITY SKY/WX TMP DP RH WIND PRES REMARKS
 
MOBILE REG APT PTCLDY 57 44 62 NW6 30.19R  
BROOKLEY FIELD CLEAR 62 40 44 NW13 30.19R  
USA CAMPUS* NOT AVBL  
DOG RIVER* NOT AVBL  
 
 
CITY SKY/WX TMP DP RH WIND PRES REMARKS
 
GULF SHORES CLEAR 61 45 56 N5 30.16R  
 

 
 
ALZ051>060-170400-  
INTERIOR SOUTHWEST AND SOUTH CENTRAL ALABAMA  
 
CITY SKY/WX TMP DP RH WIND PRES REMARKS
 
GREENVILLE LGT RAIN 57 42 57 N6 30.15R  
EVERGREEN CLEAR 56 46 69 CALM 30.17R  
ATMORE* N/A 54 46 76 CALM 30.19R  
ANDALUSIA/OPP CLEAR 61 45 55 N6 30.15R  
ANDALUSIA* N/A 57 46 67 N6 30.14R  
FLORALA APT NOT AVBL  
FLORALA* NOT AVBL  
 

 
 
FLZ001>006-170400-  
WESTERN FLORIDA PANHANDLE  
 
CITY SKY/WX TMP DP RH WIND PRES REMARKS
 
PENSACOLA CLEAR 62 48 60 N12 30.14R  
NAS PENSACOLA CLEAR 61 46 57 N8 30.14R  
MILTON CLEAR 58 46 64 N3 30.15R  
WHTNG S FIELD CLEAR 58 46 64 N9 30.15R  
 
 
CITY SKY/WX TMP DP RH WIND PRES REMARKS
 
JAY* NOT AVBL  
DUKE FIELD CLEAR 59 47 65 N9 30.12R  
CRESTVIEW CLEAR 59 48 67 N7 30.14R  
VALPARAISO CLEAR 60 47 61 N7 30.11R  
DESTIN CLEAR 65 50 58 N13G24 30.12R  
 

 
 
MSZ076-079-170400-  
INTERIOR SOUTHEAST MISSISSIPPI  
 
CITY SKY/WX TMP DP RH WIND PRES REMARKS
 
LEAKESVILLE* NOT AVBL  
AGRICOLA* NOT AVBL  
 

 
 
MARINE OBSERVATIONS  
 
STATION/POSITION TIME TEMP WIND PRES WAVE
 
AIR SEA DIR/SP/G HT/PER  
(UTC) (F) (DEG/KT/KT) (MB) (FT/S)  
PETIT BOIS ISLND 0230 67 10/ 21/ 27 1021.8R  
E DAUPHIN ISLAND 0300 67 360/ 24/ 28 1021.4R  
MIDDLE BAY LIGHT 0130 68 360/ 29 1019.3R  
USCG MOBILE BAY 0230 63 80 350/ 8/ 14 1021.0R  
STATE DOCKS 0230 64 78 1022.0R  
WEEKS BAY 0145 63 1021.0R  
FORT MORGAN 0230 68 10/ 25/ 35 1020.8R  
12 S ORANGE BCH 0300 69 360/ 21/ 27 N/A  
PENSACOLA BAY 0230 65 81 350/ 9/ 15 1020.6R  
64 S DAUPHIN ISL 0300 72 10/ 21/ 29 1020.7  
 

 
 
SELECTED LOCATIONS ACROSS THE REGION  
 
CITY SKY/WX TMP DP RH WIND PRES REMARKS
 
NEW ORLEANS PTCLDY 67 44 43 N15G22 30.20R  
GULFPORT CLEAR 62 43 49 N8 30.18R  
PASCAGOULA AP CLEAR 60 46 59 N7 30.18R  
PASCAGOULA* NOT AVBL  
HATTIESBURG CLEAR 57 44 62 NW3 30.22R  
LAUREL CLEAR 56 46 69 N8 30.23R  
MERIDIAN CLEAR 52 47 83 CALM 30.23R  
JACKSON CLEAR 55 42 61 N6 30.24R  
MONTGOMERY CLEAR 56 44 64 NW7 30.17R  
TROY CLEAR 57 42 57 N6 30.15R  
ASHFORD* N/A 57 46 67 N6 30.14R  
DOTHAN CLEAR 57 48 72 N9 30.15R  
PANAMA CITY CLEAR 62 49 62 NW12 30.08R  
 

 
 
 
 
CLICK HERE TO GO TO PREVIOUS BULLETINS.

The Nexlab AL Page
The Nexlab FL Page
The Nexlab MS Page Main Text Page